Regional Weather Roundup
Issued by NWS Boston, MA

Home | Current Version | Previous Version | Text Only | Print | Product List | Glossary On
Versions: 1 2 3 4 5 6 7 8 9 10 11 12 13 14 15 16 17 18 19 20 21 22 23 24 25 26 27 28 29 30 31 32 33 34 35 36 37 38 39 40 41 42 43 44 45 46 47 48 49 50
000
ASUS41 KBOX 271610
RWRBOX

REGIONAL WEATHER ROUNDUP
NATIONAL WEATHER SERVICE TAUNTON MA
1100 AM EST THU NOV 27 2014

NOTE:  "FAIR" INDICATES FEW OR NO CLOUDS BELOW 12,000 FEET WITH NO
SIGNIFICANT WEATHER AND/OR OBSTRUCTIONS TO VISIBILITY.  THE FOLLOWING
OBSERVATION LOCATIONS DO NOT REPORT PRESENT WEATHER...PROVINCETOWN...
SMITHFIELD...BLOCK ISLAND...KEENE...AND OXFORD.

MAZALL-271700-
EASTERN MASSACHUSETTS

CITY           SKY/WX    TMP DP  RH WIND       PRES   REMARKS
BOSTON         CLOUDY    36  29  75 NW8       29.96S WCI  30
BEVERLY        CLOUDY    34  29  82 W7        29.95R WCI  28
LAWRENCE       CLOUDY    33  29  85 W5        29.97R WCI  29
BEDFORD        CLOUDY    34  31  88 W3        29.95S
BLUE HILL        N/A     32  31  96 NW6       29.92  WCI  26
NORWOOD        CLOUDY    37  32  82 W7        29.96F WCI  32
MARSHFIELD     CLOUDY   N/A N/A N/A NW8       29.96F
PLYMOUTH       CLOUDY    37  33  85 W9        29.94F WCI  30
TAUNTON        CLOUDY    38  32  79 VRB7      29.95F
NEW BEDFORD    PTSUNNY   39  33  79 NW7       29.93F
$$

MAZALL-271700-
CAPE COD AND THE ISLANDS

CITY           SKY/WX    TMP DP  RH WIND       PRES   REMARKS
FALMOUTH       CLOUDY    39  34  81 NW9       29.93F
HYANNIS        CLOUDY    38  35  89 W8        29.91F
CHATHAM        LGT RAIN  38  36  92 W7        29.92F
PROVINCETOWN   CLOUDY    43  36  75 NW13      29.93F
NANTUCKET      CLOUDY    41  34  76 NW12      29.92S
MARTHAS VNYRD  PTSUNNY   39  30  70 NW13      29.93F WCI  31
$$

MAZALL-271700-
CENTRAL AND WESTERN MASSACHUSETTS

CITY           SKY/WX    TMP DP  RH WIND       PRES   REMARKS
WORCESTER      CLOUDY    30  27  88 W8        29.91F WCI  22
FITCHBURG      CLOUDY    34  28  79 NW6       29.96R WCI  29
ORANGE           N/A    N/A N/A N/A MISG      29.96R
SPRINGFIELD    DRIZZLE   33  29  85 CALM      29.97S
WESTFIELD      PTSUNNY   34  28  79 W3        29.97S
NORTH ADAMS    CLOUDY    28  24  85 W6        29.99S WCI  22
PITTSFIELD     CLOUDY    27  24  89 NW6       29.93F WCI  20
$$

RIZALL-271700-
RHODE ISLAND

CITY           SKY/WX    TMP DP  RH WIND       PRES   REMARKS
PROVIDENCE     PTSUNNY   40  32  73 NW8       29.95F
NEWPORT        PTSUNNY   41  31  67 NW7       29.93F
BLOCK ISLAND   CLOUDY    39  30  70 N6        29.95S
SMITHFIELD     CLOUDY    34  27  75 NW3       29.93F
WESTERLY       MOSUNNY   40  32  73 N8        29.95F
$$

CTZALL-271700-
CONNECTICUT

CITY           SKY/WX    TMP DP  RH WIND       PRES   REMARKS
BRADLEY INTL   PTSUNNY   36  28  73 N6        29.97S WCI  31
HARTFORD       CLOUDY    35  28  75 VRB5      29.98F WCI  31
BRIDGEPORT     CLOUDY    37  29  72 N7        29.99S WCI  32
DANBURY        CLOUDY    34  25  69 N7        29.99S WCI  28
GROTON         PTSUNNY   39  32  76 N6        29.95F
NEW HAVEN      PTSUNNY   40  30  67 NW7       29.98S
CHESTER        FAIR      34  30  86 N8        29.95F WCI  27
MERIDEN        CLOUDY    35  27  72 NW8       29.98S WCI  29
WILLIMANTIC    CLOUDY    36  29  75 N8        29.96F WCI  30
OXFORD         CLOUDY    30  25  80 N7        29.97F WCI  23
$$

MEZ002-015-021-024-NHZ003-005-008-011-012-014-VTZ005-008-271700-
NORTHERN NEW ENGLAND

CITY           SKY/WX    TMP DP  RH WIND       PRES   REMARKS
PORTLAND ME    PTSUNNY   35  26  69 NW13      29.92R WCI  26
BANGOR ME      MOSUNNY   30  23  75 NW15      29.85R WCI  19
CONCORD NH       N/A     32  26  78 NW8       29.94R WCI  25
MANCHESTER NH  CLOUDY    33  28  81 CALM      29.94R
NASHUA NH      CLOUDY    33  30  89 CALM      29.96R
PORTSMOUTH NH  CLOUDY    34  29  84 W8        29.93R WCI  27
JAFFREY NH       N/A     31  25  78 CALM      29.92S
KEENE NH       CLOUDY    30  27  86 N6        29.96R WCI  24
BURLINGTON VT  CLOUDY    29  21  72 N9        30.03R WCI  20
MT. WASHINGTON PTSUNNY   12   9  85 N20         N/A  WCI  -6
$$

NYZ052-076-271700-
EASTERN NEW YORK

CITY           SKY/WX    TMP DP  RH WIND       PRES   REMARKS
ALBANY         CLOUDY    32  26  78 CALM      30.03R
NEW YORK CITY  LGT SNOW  36  32  87 NW8       30.00S FOG     WCI  29
$$

ANZALL-271700-
MARINE OBSERVATIONS

STATION/POSITION TIME  TEMP    WIND        PRES    VSBY  WAVE
                       AIR SEA DIR/SP/G                  HT/PER
                 (UTC) (F)     (DEG/KT/KT) (MB)    (MI)  (FT/S)
BOSTON BUOY      1550   37 49  310/ 14/ 17 1014.2R        10/10
BUZZARDS BAY     1500          320/ 10/ 11 1014.9R
NANTUCKET SOUND  1550   39 47  300/ 14/ 16 1013.2F         2/ 3
MASS BAY-STELLWA 1504   36 50  290/ 14/ 17   N/A    1 7/8 11/11
ISLE OF SHOALS   1500   35     280/ 11/ 12 1012.8R
S OF BLOCK IS    1508      55                N/A           8/11
$$

......................KEY.........................
  SKY/WX - SKY CONDITION/PRESENT WEATHER
  TMP    - TEMPERATURE IN FAHRENHEIT
  DWPT   - DEWPOINT IN FAHRENHEIT
  RH     - RELATIVE HUMIDITY IN PERCENT
  WIND   - DIRECTION AND SPEED IN MPH
  PRES   - MEAN SEA LEVEL PRESSURE IN INCHES OF HG
  WCI    - WIND CHILL INDEX
  VSB    - VISIBILITY IN MILES
  HX     - HEAT INDEX
  TC     - TEMPERATURE IN CELSIUS
  VRB    - VARIABLE WIND DIRECTION
  N/A    - NOT AVAILABLE


USA.gov is the U.S. government's official web portal to all federal, state and local government web resources and services.